Regional Weather Roundup
Issued by NWS State College, PA

Home | Current Version | Previous Version | Graphics & Text | Print | Product List | Glossary On
Versions: 1 2 3 4 5 6 7 8 9 10 11 12 13 14 15 16 17 18 19 20 21 22 23 24 25 26 27 28 29 30 31 32 33 34 35 36 37 38 39 40 41 42 43 44 45 46 47 48 49 50
000
ASUS41 KCTP 161603
RWRCTP

REGIONAL WEATHER ROUNDUP
NATIONAL WEATHER SERVICE STATE COLLEGE PA
1200 PM EDT TUE SEP 16 2014

Note: "fair" indicates few or no clouds below 12,000 feet with no
significant weather and/or obstructions to visibility.

* = STATION THAT DOES NOT REPORT PRECIPITATION /E.G. RAIN...SNOW...ETC/
    THUNDER OR FOG.

PAZ002>004-007>009-013>016-020>023-029>032-161700-
WESTERN PENNSYLVANIA

CITY           SKY/WX    TMP DP  RH WIND       PRES   REMARKS
ERIE           SUNNY     62  45  53 N7        30.12F
MEADVILLE      CLOUDY    60  50  69 VRB3      30.11F
FRANKLIN*      CLOUDY    57  48  72 N3        30.13S
NEW CASTLE     CLOUDY    58  52  80 CALM      30.14F
BEAVER COUNTY  CLOUDY    59  54  82 N3        30.13F
BUTLER*        PTSUNNY   61  52  72 NW6       30.14S
PITTSBURGH INT PTSUNNY   60  50  69 N9        30.12F
PITTSBURGH     PTSUNNY   61  48  62 N6        30.11F
INDIANA*       CLOUDY    59  50  72 MISG      30.15S
LATROBE        PTSUNNY   61  54  77 NE6       30.13F
WASHINGTON CO* PTSUNNY   61  50  67 NW6       30.14S
$$

PAZ004>006-010>012-017>019-024>028-033>037-041-042-045-046-049>053-161700-
CENTRAL PENNSYLVANIA

CITY           SKY/WX    TMP DP  RH WIND       PRES   REMARKS
BRADFORD       PTSUNNY   57  47  69 N13       30.10F
DUBOIS         PTSUNNY   58  49  72 NW7       30.09F
CLEARFIELD     CLOUDY    60  49  66 N7        30.09F
JOHNSTOWN      PTSUNNY   56  49  77 NW9       30.11S
ALTOONA        CLOUDY    60  51  72 NW6       30.09F
STATE COLLEGE  MOSUNNY   63  52  67 N7        30.08S
WILLIAMSPORT   PTSUNNY   67  47  48 MISG      30.04S
SELINSGROVE    PTSUNNY   64  54  69 CALM      30.06S
FT INDIANTOWN  PTSUNNY   65  53  65 NW9       30.04S
CAPITAL CITY   PTSUNNY   69  52  54 NW10      30.04F
HARRISBURG     PTSUNNY   70  52  52 NW16      30.03F
YORK           SUNNY     69  53  56 N15       30.03F
$$

PAZ038>040-043-044-047-048-054-055-060>062-067>071-161700-
EASTERN PENNSYLVANIA

CITY           SKY/WX    TMP DP  RH WIND       PRES   REMARKS
SCRANTON       PTSUNNY   63  51  65 NW7       30.04S
MOUNT POCONO   CLOUDY    59  50  72 NW6       30.04S
ALLENTOWN      PTSUNNY   68  53  58 N8        30.01F
QUAKERTOWN*    PTSUNNY   66  55  68 MISG      30.02F
READING        PTSUNNY   70  54  56 N10       30.01F
LANCASTER      MOSUNNY   70  53  54 W13       30.02F
COATESVILLE    PTSUNNY   68  55  64 N9        30.02F
POTTSTOWN      MOSUNNY   68  54  60 N9        30.02F
BLUE BELL      PTSUNNY   70  57  64 NW6       29.99F
DOYLESTOWN     SUNNY     70  57  63 N10       30.00F
WILLOW GROVE   NOT AVBL
NORTH PHILA    SUNNY     71  55  56 N7        30.01F
PHILADELPHIA   MOSUNNY   72  56  57 N10       30.00F
$$


USA.gov is the U.S. government's official web portal to all federal, state and local government web resources and services.